| time (UTC) | temp F | wind direction | speed MPH | gust MPH | rain 1hr in | rain 24hr in | rain mn in | humidity % | barometer mb |
| 20260507010046 | 60 | 0 | 0.0 | 2.0 | 0.00 | 0.15 | 0.14 | 94 | 1004.4 |
| 20260507004544 | 60 | 0 | 0.0 | 1.0 | 0.00 | 0.15 | 0.14 | 94 | 1004.3 |
| 20260507003040 | 60 | 0 | 0.0 | 0.0 | 0.00 | 0.15 | 0.14 | 94 | 1004.1 |
| 20260507001606 | 60 | 0 | 0.0 | 4.0 | 0.00 | 0.15 | 0.14 | 94 | 1004.2 |
| 20260507000043 | 60 | 0 | 0.0 | 0.0 | 0.00 | 0.15 | 0.14 | 94 | 1004.0 |
| 20260506234551 | 61 | 0 | 0.0 | 1.0 | 0.00 | 0.17 | 0.14 | 94 | 1003.8 |
| 20260506233043 | 61 | 0 | 0.0 | 5.0 | 0.00 | 0.17 | 0.14 | 94 | 1003.6 |
| 20260506231543 | 61 | 0 | 0.0 | 4.0 | 0.00 | 0.17 | 0.14 | 94 | 1003.8 |
| 20260506230053 | 61 | 0 | 0.0 | 5.0 | 0.00 | 0.17 | 0.14 | 94 | 1003.9 |
| 20260506224540 | 61 | 0 | 0.0 | 5.0 | 0.00 | 0.17 | 0.14 | 94 | 1003.8 |
| 20260506223041 | 61 | 0 | 0.0 | 4.0 | 0.00 | 0.17 | 0.14 | 94 | 1003.9 |
| 20260506221602 | 61 | 0 | 0.0 | 0.0 | 0.00 | 0.17 | 0.14 | 94 | 1004.0 |
| 20260506220043 | 62 | 0 | 0.0 | 5.0 | 0.00 | 0.17 | 0.14 | 94 | 1004.0 |
| 20260506214541 | 62 | 0 | 0.0 | 4.0 | 0.00 | 0.17 | 0.14 | 94 | 1004.0 |
| 20260506213040 | 62 | 0 | 1.0 | 5.0 | 0.00 | 0.17 | 0.14 | 94 | 1004.2 |
| 20260506211540 | 63 | 231 | 0.0 | 3.0 | 0.01 | 0.17 | 0.14 | 95 | 1004.3 |
| 20260506210051 | 63 | 175 | 0.0 | 3.0 | 0.03 | 0.17 | 0.14 | 94 | 1004.3 |
| 20260506204547 | 63 | 0 | 0.0 | 2.0 | 0.05 | 0.17 | 0.14 | 95 | 1004.5 |
| 20260506203043 | 63 | 0 | 1.0 | 5.0 | 0.06 | 0.17 | 0.14 | 94 | 1004.5 |
| 20260506201541 | 63 | 0 | 0.0 | 0.0 | 0.05 | 0.16 | 0.13 | 94 | 1004.5 |
| 20260506200040 | 63 | 0 | 0.0 | 2.0 | 0.04 | 0.14 | 0.11 | 94 | 1004.8 |
| 20260506194536 | 63 | 0 | 0.0 | 0.0 | 0.02 | 0.12 | 0.09 | 94 | 1004.9 |
| 20260506193048 | 63 | 0 | 0.0 | 0.0 | 0.02 | 0.11 | 0.08 | 94 | 1005.1 |
| 20260506191542 | 63 | 0 | 0.0 | 0.0 | 0.03 | 0.11 | 0.08 | 94 | 1005.0 |
| 20260506190040 | 63 | 0 | 0.0 | 0.0 | 0.03 | 0.10 | 0.07 | 93 | 1005.0 |
| 20260506184543 | 63 | 0 | 0.0 | 0.0 | 0.04 | 0.10 | 0.07 | 93 | 1005.5 |
| 20260506183045 | 63 | 0 | 0.0 | 0.0 | 0.05 | 0.09 | 0.06 | 92 | 1005.8 |
| 20260506181549 | 63 | 0 | 0.0 | 0.0 | 0.05 | 0.08 | 0.05 | 91 | 1005.9 |
| 20260506180040 | 63 | 0 | 0.0 | 0.0 | 0.04 | 0.07 | 0.04 | 90 | 1006.3 |
| 20260506174541 | 64 | 0 | 0.0 | 2.0 | 0.03 | 0.06 | 0.03 | 87 | 1006.4 |
| 20260506173041 | 65 | 0 | 0.0 | 6.0 | 0.01 | 0.04 | 0.01 | 83 | 1006.4 |
| 20260506171545 | 67 | 0 | 1.0 | 3.0 | 0.00 | 0.03 | 0.00 | 78 | 1006.2 |
| 20260506170052 | 69 | 225 | 2.0 | 8.0 | 0.00 | 0.03 | 0.00 | 70 | 1005.9 |
| 20260506164554 | 70 | 256 | 3.0 | 16.0 | 0.00 | 0.03 | 0.00 | 67 | 1005.9 |
| 20260506163045 | 70 | 227 | 2.0 | 7.0 | 0.00 | 0.03 | 0.00 | 67 | 1006.1 |
| 20260506161546 | 70 | 198 | 2.0 | 7.0 | 0.00 | 0.03 | 0.00 | 68 | 1006.4 |
| 20260506160055 | 69 | 0 | 0.0 | 4.0 | 0.00 | 0.03 | 0.00 | 70 | 1006.6 |
| 20260506154544 | 69 | 252 | 3.0 | 10.0 | 0.00 | 0.03 | 0.00 | 70 | 1006.9 |
| 20260506153040 | 69 | 225 | 3.0 | 10.0 | 0.00 | 0.03 | 0.00 | 69 | 1007.2 |
| 20260506151540 | 69 | 234 | 6.0 | 13.0 | 0.00 | 0.03 | 0.00 | 69 | 1007.5 |
| 20260506150056 | 69 | 0 | 0.0 | 0.0 | 0.00 | 0.03 | 0.00 | 72 | 1007.4 |
| 20260506144542 | 70 | 0 | 0.0 | 3.0 | 0.00 | 0.03 | 0.00 | 71 | 1007.2 |
| 20260506143042 | 70 | 0 | 0.0 | 4.0 | 0.00 | 0.03 | 0.00 | 74 | 1007.3 |
| 20260506141544 | 69 | 0 | 1.0 | 5.0 | 0.00 | 0.03 | 0.00 | 75 | 1007.2 |
| 20260506140041 | 67 | 0 | 0.0 | 0.0 | 0.00 | 0.03 | 0.00 | 81 | 1007.2 |
| 20260506134536 | 65 | 0 | 0.0 | 0.0 | 0.00 | 0.03 | 0.00 | 84 | 1007.3 |
| 20260506133056 | 63 | 0 | 0.0 | 0.0 | 0.00 | 0.03 | 0.00 | 85 | 1007.5 |
| 20260506131542 | 62 | 0 | 0.0 | 0.0 | 0.00 | 0.03 | 0.00 | 89 | 1007.6 |
| 20260506130041 | 61 | 0 | 0.0 | 1.0 | 0.00 | 0.03 | 0.00 | 91 | 1007.7 |
| 20260506124541 | 60 | 0 | 0.0 | 0.0 | 0.00 | 0.03 | 0.00 | 94 | 1007.7 |
| 20260506123041 | 59 | 0 | 0.0 | 0.0 | 0.00 | 0.03 | 0.00 | 95 | 1007.6 |
| 20260506121553 | 58 | 0 | 0.0 | 0.0 | 0.00 | 0.03 | 0.00 | 95 | 1007.6 |
| 20260506120056 | 57 | 0 | 0.0 | 0.0 | 0.00 | 0.03 | 0.00 | 95 | 1007.7 |
| 20260506114541 | 56 | 0 | 0.0 | 0.0 | 0.00 | 0.03 | 0.00 | 95 | 1007.9 |
| 20260506113041 | 55 | 0 | 0.0 | 0.0 | 0.00 | 0.03 | 0.00 | 95 | 1007.9 |
| 20260506111545 | 54 | 0 | 0.0 | 2.0 | 0.00 | 0.03 | 0.00 | 95 | 1008.2 |
| 20260506110057 | 53 | 0 | 0.0 | 0.0 | 0.00 | 0.03 | 0.00 | 95 | 1008.0 |
| 20260506104557 | 53 | 0 | 0.0 | 0.0 | 0.00 | 0.03 | 0.00 | 95 | 1008.0 |
| 20260506103046 | 52 | 0 | 0.0 | 0.0 | 0.00 | 0.03 | 0.00 | 94 | 1008.1 |
| 20260506101541 | 52 | 0 | 0.0 | 0.0 | 0.00 | 0.03 | 0.00 | 94 | 1008.0 |
| 20260506100048 | 52 | 0 | 0.0 | 0.0 | 0.00 | 0.03 | 0.00 | 94 | 1008.1 |
| 20260506094536 | 52 | 0 | 0.0 | 0.0 | 0.00 | 0.03 | 0.00 | 94 | 1008.0 |
| 20260506093044 | 52 | 0 | 0.0 | 0.0 | 0.00 | 0.03 | 0.00 | 94 | 1007.9 |
| 20260506091541 | 53 | 0 | 0.0 | 0.0 | 0.00 | 0.03 | 0.00 | 93 | 1007.9 |
| 20260506090042 | 53 | 0 | 0.0 | 3.0 | 0.00 | 0.03 | 0.00 | 93 | 1008.1 |
| 20260506084612 | 54 | 0 | 0.0 | 0.0 | 0.00 | 0.03 | 0.00 | 93 | 1008.0 |
| 20260506083040 | 54 | 0 | 0.0 | 0.0 | 0.00 | 0.03 | 0.00 | 93 | 1008.0 |
| 20260506081554 | 55 | 0 | 0.0 | 0.0 | 0.00 | 0.03 | 0.00 | 92 | 1008.2 |
| 20260506073044 | 56 | 0 | 0.0 | 0.0 | 0.00 | 0.03 | 0.00 | 92 | 1008.1 |
| 20260506071541 | 56 | 0 | 0.0 | 0.0 | 0.00 | 0.03 | 0.00 | 92 | 1008.1 |
| 20260506061541 | 57 | 0 | 0.0 | 0.0 | 0.00 | 0.03 | 0.00 | 90 | 1007.7 |
| 20260506044540 | 61 | 0 | 0.0 | 0.0 | 0.00 | 0.03 | 0.00 | 81 | 1007.9 |
| 20260506043048 | 61 | 0 | 0.0 | 1.0 | 0.00 | 0.03 | 0.00 | 81 | 1007.9 |
| 20260506041546 | 61 | 0 | 0.0 | 3.0 | 0.00 | 0.03 | 0.00 | 82 | 1008.0 |
| 20260506040042 | 60 | 0 | 0.0 | 4.0 | 0.00 | 0.03 | 0.00 | 87 | 1007.8 |
| 20260506034541 | 59 | 0 | 0.0 | 3.0 | 0.00 | 0.03 | 0.03 | 93 | 1007.7 |
| 20260506033040 | 59 | 286 | 0.0 | 4.0 | 0.00 | 0.03 | 0.03 | 94 | 1007.5 |
| 20260506031543 | 59 | 0 | 0.0 | 3.0 | 0.00 | 0.03 | 0.03 | 93 | 1007.7 |
| 20260506030043 | 59 | 0 | 0.0 | 0.0 | 0.00 | 0.03 | 0.03 | 93 | 1007.7 |
| 20260506024541 | 60 | 0 | 0.0 | 0.0 | 0.01 | 0.03 | 0.03 | 93 | 1007.8 |
| 20260506023059 | 60 | 0 | 0.0 | 0.0 | 0.01 | 0.03 | 0.03 | 92 | 1007.6 |
| 20260506021606 | 61 | 0 | 0.0 | 0.0 | 0.01 | 0.03 | 0.03 | 92 | 1007.6 |
| 20260506020042 | 61 | 0 | 0.0 | 0.0 | 0.01 | 0.03 | 0.03 | 91 | 1007.8 |
| 20260506014541 | 62 | 0 | 0.0 | 0.0 | 0.00 | 0.02 | 0.02 | 91 | 1007.8 |
| 20260506013044 | 62 | 0 | 0.0 | 0.0 | 0.00 | 0.02 | 0.02 | 90 | 1007.9 |
| 20260506011555 | 63 | 0 | 0.0 | 0.0 | 0.00 | 0.02 | 0.02 | 89 | 1007.8 |